Date String (YYYY-MM-DD hh:mm:ss) UTC,Instrument flags,absolute air pressure of the measurement (hPa),sample flow rate (lpm),inlet stack bypass flow (lpm),air temperature of the measurement (°C),ambient temperature measured by the external sensor (°C),aerosol sample conditioner tube jacket temperature (°C),OPC LED temperature (°C),internal box temperature (°C),relative humidity of the measurement (%),span deviation,mass concentration of particles derived from Lorenz-Mie calculation of OPC scattering (μg/m³),mass concentration of particles derived from Lorenz-Mie calculation of OPC scattering (μg/m³),mass concentration of particles derived from Lorenz-Mie calculation of OPC scattering (μg/m³)
DateTimeUTC,F1_M11,P_M11,Q1_M11,Q2_M11,T1_M11,T2_M11,T3_M11,T4_M11,T5_M11,U1_M11,ZSPAN_M11,X0_M11,X2_M11,X1_M11
2023-09-29 18:00:00,SystemResetWarning,0829.3,5.00,000.00,028.1,025.3,000.0,036.6,029.7,21.5,0003.2,0021.55,0008.59,0006.35
2023-09-29 18:01:00,SystemResetWarning,0829.4,5.00,000.00,028.1,025.7,000.0,036.6,029.8,21.6,0003.5,0022.12,0008.67,0006.39
2023-09-29 18:02:00,SystemResetWarning,0829.3,5.00,000.00,028.1,026.1,000.0,036.6,029.9,21.3,0003.0,0022.29,0008.74,0006.43
2023-09-29 18:03:00,SystemResetWarning,0829.3,5.00,000.00,028.1,026.4,000.0,036.6,030.0,21.3,0002.5,0023.59,0008.75,0006.44
2023-09-29 18:04:00,SystemResetWarning,0829.3,5.00,000.00,028.2,026.7,000.0,036.6,030.0,21.4,0002.6,0024.70,0008.78,0006.45
2023-09-29 18:05:00,SystemResetWarning,0829.3,5.00,000.00,028.2,026.9,000.0,036.7,030.1,21.5,0002.8,0026.04,0008.85,0006.46
2023-09-29 18:06:00,SystemResetWarning,0829.3,5.00,000.00,028.3,027.1,000.0,036.7,030.1,22.3,0002.5,0025.67,0008.84,0006.47
2023-09-29 18:07:00,SystemResetWarning,0829.3,4.99,000.00,028.3,027.1,000.0,036.7,030.2,22.6,0002.9,0025.64,0008.85,0006.47
2023-09-29 18:08:00,SystemResetWarning,0829.3,4.98,000.00,028.3,025.7,000.0,036.7,030.1,23.2,0003.6,0026.43,0008.82,0006.46
2023-09-29 18:09:00,SystemResetWarning,0829.2,5.01,000.00,028.2,024.4,000.0,036.6,029.8,23.5,0003.5,0026.80,0008.81,0006.45
2023-09-29 18:10:00,SystemResetWarning,0829.2,5.02,000.00,028.2,024.5,000.0,036.5,029.8,24.1,0003.2,0026.50,0008.74,0006.45
2023-09-29 18:11:00,SystemResetWarning,0829.2,4.99,000.00,028.1,024.8,000.0,036.6,029.7,24.6,0003.0,0027.00,0008.69,0006.43
2023-09-29 18:12:00,SystemResetWarning,0829.2,4.99,000.00,028.1,025.2,000.0,036.6,029.7,24.5,0002.5,0026.91,0008.66,0006.42
2023-09-29 18:13:00,SystemResetWarning,0829.2,5.00,000.00,028.1,025.6,000.0,036.6,029.8,24.1,0002.4,0028.31,0008.56,0006.37
2023-09-29 18:14:00,SystemResetWarning,0829.2,5.01,000.00,028.1,026.0,000.0,036.6,029.8,23.5,0002.4,0027.14,0008.41,0006.33
2023-09-29 18:15:00,SystemResetWarning,0829.1,5.01,000.00,028.1,026.3,000.0,036.6,029.9,24.1,0001.8,0025.84,0008.31,0006.30
2023-09-29 18:16:00,SystemResetWarning,0829.1,4.99,000.00,028.1,026.6,000.0,036.6,030.0,25.0,0001.8,0025.49,0008.20,0006.27
2023-09-29 18:17:00,SystemResetWarning,0829.2,4.99,000.00,028.2,026.8,000.0,036.6,030.0,25.5,0001.8,0025.36,0008.20,0006.26
2023-09-29 18:18:00,SystemResetWarning,0829.2,5.00,000.00,028.2,027.1,000.0,036.7,030.1,26.0,0001.8,0025.23,0008.14,0006.24
2023-09-29 18:19:00,SystemResetWarning,0829.2,5.00,000.00,028.3,027.2,000.0,036.7,030.2,26.0,0001.1,0024.36,0008.10,0006.21
2023-09-29 18:20:00,SystemResetWarning,0829.2,5.00,000.00,028.3,026.1,000.0,036.6,030.1,24.6,0000.8,0024.38,0008.09,0006.19
2023-09-29 18:21:00,SystemResetWarning,0829.2,5.01,000.00,028.2,024.6,000.0,036.6,029.9,24.6,0001.0,0024.25,0008.04,0006.17
2023-09-29 18:22:00,SystemResetWarning,0829.2,5.02,000.00,028.2,024.4,000.0,036.5,029.8,24.6,0001.3,0022.98,0008.01,0006.17
2023-09-29 18:23:00,SystemResetWarning,0829.1,4.98,000.00,028.1,024.7,000.0,036.5,029.7,24.6,0001.8,0022.22,0007.94,0006.16
2023-09-29 18:24:00,SystemResetWarning,0829.1,5.00,000.00,028.1,025.1,000.0,036.5,029.7,24.8,0002.5,0020.35,0007.98,0006.18
2023-09-29 18:25:00,SystemResetWarning,0829.1,5.01,000.00,028.1,025.5,000.0,036.6,029.8,25.1,0002.3,0020.58,0008.02,0006.20
2023-09-29 18:26:00,SystemResetWarning,0829.1,5.00,000.00,028.1,025.9,000.0,036.6,029.8,24.5,0002.2,0020.32,0008.02,0006.20
2023-09-29 18:27:00,SystemResetWarning,0829.1,5.00,000.00,028.1,026.2,000.0,036.6,029.9,25.4,0001.9,0019.72,0008.03,0006.21
2023-09-29 18:28:00,SystemResetWarning,0829.1,5.00,000.00,028.1,026.5,000.0,036.6,030.0,25.3,0002.0,0019.91,0007.97,0006.19
2023-09-29 18:29:00,SystemResetWarning,0829.1,5.00,000.00,028.2,026.8,000.0,036.6,030.0,24.1,0001.6,0020.23,0007.95,0006.19
2023-09-29 18:30:00,SystemResetWarning,0829.1,5.00,000.00,028.2,027.0,000.0,036.6,030.1,23.6,0002.0,0020.43,0007.89,0006.20
2023-09-29 18:31:00,SystemResetWarning,0829.1,5.00,000.00,028.3,027.0,000.0,036.6,030.2,23.3,0002.6,0019.64,0007.84,0006.19
2023-09-29 18:32:00,SystemResetWarning,0829.1,4.98,000.00,028.3,025.6,000.0,036.6,030.1,23.7,0002.2,0018.99,0007.92,0006.18
2023-09-29 18:33:00,SystemResetWarning,0829.0,5.01,000.00,028.2,024.4,000.0,036.5,029.8,25.4,0002.8,0021.60,0007.93,0006.19
2023-09-29 18:34:00,SystemResetWarning,0829.0,5.02,000.00,028.1,024.5,000.0,036.5,029.8,25.7,0002.4,0022.69,0008.01,0006.18
2023-09-29 18:35:00,SystemResetWarning,0828.9,5.00,000.00,028.1,024.8,000.0,036.5,029.6,25.8,0002.1,0023.44,0007.98,0006.16
2023-09-29 18:36:00,SystemResetWarning,0828.9,5.00,000.00,028.0,025.2,000.0,036.5,029.7,25.1,0001.9,0023.01,0007.97,0006.14
2023-09-29 18:37:00,SystemResetWarning,0828.9,5.01,000.00,028.0,025.6,000.0,036.5,029.7,24.4,0002.7,0022.99,0007.96,0006.13
2023-09-29 18:38:00,SystemResetWarning,0829.0,5.00,000.00,028.0,026.0,000.0,036.5,029.8,24.4,0003.2,0023.06,0008.01,0006.12
2023-09-29 18:39:00,SystemResetWarning,0828.9,5.00,000.00,028.1,026.3,000.0,036.5,029.9,23.7,0003.4,0023.00,0008.04,0006.11
2023-09-29 18:40:00,SystemResetWarning,0829.0,5.00,000.00,028.1,026.6,000.0,036.6,030.0,24.1,0003.3,0022.01,0008.08,0006.11
2023-09-29 18:41:00,SystemResetWarning,0828.9,5.00,000.00,028.2,026.8,000.0,036.6,030.0,24.5,0003.2,0021.81,0008.08,0006.09
2023-09-29 18:42:00,SystemResetWarning,0828.9,5.00,000.00,028.2,027.0,000.0,036.6,030.1,24.6,0002.6,0021.87,0008.15,0006.08
2023-09-29 18:43:00,SystemResetWarning,0829.0,4.99,000.00,028.3,026.8,000.0,036.6,030.1,24.3,0002.9,0022.17,0008.12,0006.06
2023-09-29 18:44:00,SystemResetWarning,0828.9,5.00,000.00,028.2,025.2,000.0,036.6,030.0,24.6,0002.6,0020.22,0008.04,0006.01
2023-09-29 18:45:00,SystemResetWarning,0828.9,5.00,000.00,028.1,024.4,000.0,036.5,029.8,25.0,0002.5,0018.70,0007.99,0005.97
2023-09-29 18:46:00,SystemResetWarning,0828.9,5.01,000.00,028.1,024.6,000.0,036.5,029.7,24.9,0002.3,0018.90,0007.97,0005.94
2023-09-29 18:47:00,SystemResetWarning,0828.9,5.01,000.00,028.0,024.9,000.0,036.5,029.6,25.0,0002.7,0019.63,0007.98,0005.91
2023-09-29 18:48:00,SystemResetWarning,0829.0,5.00,000.00,028.0,025.3,000.0,036.5,029.6,25.3,0002.4,0020.92,0007.95,0005.89
2023-09-29 18:49:00,SystemResetWarning,0829.0,5.00,000.00,028.0,025.7,000.0,036.5,029.7,25.5,0002.1,0022.03,0007.89,0005.87
2023-09-29 18:50:00,SystemResetWarning,0828.9,5.00,000.00,028.0,026.1,000.0,036.5,029.8,25.4,0001.5,0022.38,0007.86,0005.85
2023-09-29 18:51:00,SystemResetWarning,0828.9,5.00,000.00,028.1,026.4,000.0,036.5,029.9,25.3,0001.1,0024.05,0007.84,0005.81
2023-09-29 18:52:00,SystemResetWarning,0828.8,5.00,000.00,028.1,026.7,000.0,036.5,030.0,25.1,0001.7,0025.37,0007.80,0005.77
2023-09-29 18:53:00,SystemResetWarning,0828.8,4.99,000.00,028.1,026.9,000.0,036.6,030.0,25.1,0001.9,0025.94,0007.77,0005.75
2023-09-29 18:54:00,SystemResetWarning,0828.8,4.99,000.00,028.2,027.1,000.0,036.6,030.1,24.6,0001.6,0026.19,0007.73,0005.72
2023-09-29 18:55:00,SystemResetWarning,0828.7,4.99,000.00,028.2,026.4,000.0,036.6,030.1,23.8,0000.9,0026.26,0007.73,0005.69
2023-09-29 18:56:00,SystemResetWarning,0828.8,5.00,000.00,028.2,024.7,000.0,036.5,029.9,24.1,0001.2,0026.34,0007.71,0005.67
2023-09-29 18:57:00,SystemResetWarning,0828.7,5.00,000.00,028.1,024.3,000.0,036.5,029.8,24.7,0002.2,0025.76,0007.70,0005.67
2023-09-29 18:58:00,SystemResetWarning,0828.7,5.02,000.00,028.1,024.6,000.0,036.4,029.7,24.7,0001.9,0025.62,0007.70,0005.66
2023-09-29 18:59:00,SystemResetWarning,0828.7,5.00,000.00,028.0,025.0,000.0,036.5,029.6,24.9,0001.3,0025.68,0007.71,0005.64
